TimeHST,TemperatureF,Dew PointF,Humidity,Sea Level PressureIn,VisibilityMPH,Wind Direction,Wind SpeedMPH,Gust SpeedMPH,PrecipitationIn,Events,Conditions,WindDirDegrees,DateUTC
12:53 AM,71.1,66.0,84,30.10,10.0,Calm,Calm,-,N/A,,Clear,0,2013-11-01 10:53:00
1:53 AM,72.0,66.0,81,30.09,10.0,Variable,3.5,-,N/A,,Clear,0,2013-11-01 11:53:00
2:53 AM,71.1,64.9,81,30.07,10.0,Calm,Calm,-,N/A,,Clear,0,2013-11-01 12:53:00
3:53 AM,71.1,64.9,81,30.07,10.0,Variable,3.5,-,N/A,,Clear,0,2013-11-01 13:53:00
4:53 AM,69.1,64.0,84,30.07,10.0,Variable,4.6,-,N/A,,Clear,0,2013-11-01 14:53:00
5:53 AM,70.0,64.0,81,30.09,10.0,Variable,3.5,-,N/A,,Clear,0,2013-11-01 15:53:00
6:53 AM,70.0,64.9,84,30.10,10.0,Calm,Calm,-,N/A,,Clear,0,2013-11-01 16:53:00
7:24 AM,71.6,64.4,78,30.09,10.0,NE,4.6,-,N/A,,Scattered Clouds,50,2013-11-01 17:24:00
8:14 AM,75.2,66.2,73,30.10,10.0,Variable,4.6,-,N/A,,Partly Cloudy,0,2013-11-01 18:14:00
8:53 AM,79.0,64.9,62,30.12,10.0,Variable,6.9,-,N/A,,Clear,0,2013-11-01 18:53:00
9:53 AM,81.0,64.9,58,30.11,10.0,ENE,8.1,16.1,N/A,,Partly Cloudy,60,2013-11-01 19:53:00
10:53 AM,82.0,64.9,56,30.10,10.0,Variable,4.6,17.3,N/A,,Partly Cloudy,0,2013-11-01 20:53:00
11:53 AM,82.9,64.0,53,30.08,10.0,ENE,8.1,19.6,N/A,,Partly Cloudy,70,2013-11-01 21:53:00
12:53 PM,82.9,64.9,54,30.05,10.0,NE,8.1,-,N/A,,Partly Cloudy,40,2013-11-01 22:53:00
1:53 PM,84.0,66.0,55,30.02,10.0,Variable,3.5,-,N/A,,Partly Cloudy,0,2013-11-01 23:53:00
2:53 PM,82.0,66.0,58,30.01,10.0,NE,9.2,-,N/A,,Partly Cloudy,40,2013-11-02 00:53:00
3:53 PM,80.1,66.9,64,30.01,10.0,ENE,8.1,-,N/A,,Clear,60,2013-11-02 01:53:00
4:53 PM,79.0,66.9,66,30.02,10.0,Variable,6.9,-,N/A,,Mostly Cloudy,0,2013-11-02 02:53:00
5:53 PM,75.9,68.0,76,30.04,10.0,East,6.9,-,N/A,,Partly Cloudy,80,2013-11-02 03:53:00
6:53 PM,75.0,68.0,79,30.06,10.0,Variable,3.5,-,N/A,,Scattered Clouds,0,2013-11-02 04:53:00
7:53 PM,73.9,68.0,82,30.09,10.0,ENE,4.6,-,N/A,,Mostly Cloudy,70,2013-11-02 05:53:00
8:53 PM,73.0,69.1,87,30.11,10.0,NE,4.6,-,0.00,,Partly Cloudy,50,2013-11-02 06:53:00
9:53 PM,72.0,69.1,91,30.11,10.0,Calm,Calm,-,N/A,,Partly Cloudy,0,2013-11-02 07:53:00
10:53 PM,73.0,66.0,79,30.11,10.0,East,4.6,-,N/A,,Clear,80,2013-11-02 08:53:00
11:25 PM,73.4,64.4,73,30.09,10.0,Calm,Calm,-,N/A,,Partly Cloudy,0,2013-11-02 09:25:00
11:53 PM,73.0,64.9,76,30.10,10.0,East,3.5,-,N/A,,Clear,80,2013-11-02 09:53:00